Weather History for KPDK - February, 2014

Change the Weather History Date:

Saturday, February 22, 2014

  Actual Average Record
Temperature  
Mean Temperature 50 °F 48 °F  
Max Temperature 63 °F 58 °F - ()
Min Temperature 36 °F 38 °F - ()
Degree Days  
Heating Degree Days 15 17  
Month to date heating degree days 437 427  
Since 1 July heating degree days 2527 2300  
Moisture  
Dew Point 25 °F    
Average Humidity 47    
Maximum Humidity 75    
Minimum Humidity 19    
Precipitation  
Precipitation 0.00 in 0.19 in - ()
Month to date precipitation 3.26 3.81  
Year to date precipitation 6.23 8.61  
Snow  
Snow 0.00 in - - ()
Month to date snowfall 0.0  
Since 1 July snowfall T  
Snow Depth 0.00 in    
Sea Level Pressure  
Sea Level Pressure 30.13 in    
Wind  
Wind Speed 3 mph (ESE)    
Max Wind Speed 10 mph    
Max Gust Speed 15 mph    
Visibility 10 miles    
Events      
T = Trace of Precipitation, MM = Missing Value Source: NWS Daily Summary

Daily Weather History Graph

Daily Weather History Graph

Search for Another Location

Airport or City:

Trip Planner

Search our weather history database for the weather conditions in past years. The results will help you decide how hot, cold, wet, or windy it might be!

Date:

Astronomy

Feb. 22, 2014 Rise Set
Actual Time 7:14 AM EST 6:27 PM EST
Civil Twilight 6:48 AM EST 6:52 PM EST
Nautical Twilight 6:19 AM EST 7:22 PM EST
Astronomical Twilight 5:50 AM EST 7:50 PM EST
Moon 1:01 AM EST (2/22) 11:45 AM EST (2/22)
Length of Visible Light 12h 04m
Length of Day
11h 13m
Waning Gibbous, 50% of the Moon is Illuminated
Feb 22
Waning Gibbous
Feb 22
Last Quarter
Mar 1
New
Mar 8
First Quarter
Mar 16
Full

Hourly Weather History & Observations

Time (EST) Temp. Windchill Dew Point Humidity Pressure Visibility Wind Dir Wind Speed Gust Speed Precip Events Conditions
12:53 AM 45.0 °F 42.6 °F 21.0 °F 39% 30.10 in 10.0 mi NW 4.6 mph - N/A   Clear
1:53 AM 41.0 °F - 24.1 °F 51% 30.10 in 10.0 mi Calm Calm - N/A   Clear
2:53 AM 37.0 °F - 26.1 °F 65% 30.11 in 10.0 mi Calm Calm - N/A   Clear
3:53 AM 37.9 °F - 26.1 °F 62% 30.11 in 10.0 mi Calm Calm - N/A   Clear
4:53 AM 39.9 °F - 26.1 °F 58% 30.12 in 10.0 mi Calm Calm - N/A   Clear
5:53 AM 36.0 °F - 28.9 °F 76% 30.14 in 10.0 mi Calm Calm - N/A   Clear
6:53 AM 39.0 °F - 28.0 °F 65% 30.16 in 10.0 mi Calm Calm - N/A   Clear
7:53 AM 39.9 °F - 30.9 °F 70% 30.18 in 10.0 mi Calm Calm - N/A   Clear
8:53 AM 45.0 °F - 28.0 °F 52% 30.20 in 10.0 mi Calm Calm - N/A   Clear
9:53 AM 51.1 °F - 24.1 °F 35% 30.20 in 10.0 mi NNW 4.6 mph - N/A   Clear
10:53 AM 55.9 °F - 21.0 °F 26% 30.20 in 10.0 mi Variable 4.6 mph - N/A   Clear
11:53 AM 57.9 °F - 19.9 °F 23% 30.18 in 10.0 mi Variable 4.6 mph - N/A   Clear
12:53 PM 60.1 °F - 19.9 °F 21% 30.15 in 10.0 mi Variable 4.6 mph - N/A   Clear
1:53 PM 62.1 °F - 19.0 °F 19% 30.12 in 10.0 mi ESE 6.9 mph - N/A   Clear
2:53 PM 62.1 °F - 19.9 °F 20% 30.10 in 10.0 mi SE 9.2 mph - N/A   Clear
3:53 PM 62.1 °F - 21.0 °F 21% 30.09 in 10.0 mi SSE 9.2 mph - N/A   Clear
4:53 PM 61.0 °F - 19.9 °F 21% 30.09 in 10.0 mi SE 5.8 mph - N/A   Clear
5:53 PM 59.0 °F - 21.9 °F 24% 30.09 in 10.0 mi ESE 3.5 mph - N/A   Clear
6:53 PM 55.9 °F - 25.0 °F 30% 30.09 in 10.0 mi Calm Calm - N/A   Clear
7:53 PM 54.0 °F - 26.1 °F 34% 30.09 in 10.0 mi Calm Calm - N/A   Clear
8:53 PM 53.1 °F - 27.0 °F 37% 30.10 in 10.0 mi East 3.5 mph - N/A   Clear
9:53 PM 50.0 °F - 27.0 °F 41% 30.10 in 10.0 mi Calm Calm - N/A   Clear
10:53 PM 45.0 °F - 28.9 °F 53% 30.10 in 10.0 mi Calm Calm - N/A   Clear
11:53 PM 43.0 °F - 30.9 °F 62% 30.09 in 10.0 mi Calm Calm - N/A   Scattered Clouds